STARLINK-35644 (66402 NORAD) Tracking and Keplerian Element Data

This shows tracking and keplerian element data for the satellite.

Feedback or suggestion? Click here.




ElementValue
Catalog66402
NameSTARLINK-35644
Epoch Orbit748
Epoch Day353.93893985
Epoch Year2025
RAAN230.2641
Inclination53.1587
Eccentricity0.0001392
Argument of Perigee90.158
Mean Anonmoly269.9584
Mean Motion15.3960741
Decay Rate0.00024421
L11 66402U 25257Y 25353.93893985 .00024421 00000+0 61880-3 0 9999
L22 66402 53.1587 230.2641 0001392 90.1580 269.9584 15.39607410 7483



Live tracking and technical data element details for STARLINK-35644 (NORAD 66402). STARLINK-35644 can be tracked NOW for your location showing map with azimuth and elevation plus other details from your city location.







IsCatalogInMostPopularTable: catalog: 66402, numindb: 6
Update: records affected: 1



GetName: 66402 STARLINK-35644

Hit Count: updated at: Sat, 11 Apr 2026 21:10:05 GMT